User: anonymous   Login
Location: Unspecified
(0.0000°N, 0.0000°E)
Time: 14:02:19
(UTC+00:00)
Language:

KEPLER-1 (CASE) - Orbit

View from above orbital plane
View from above orbital plane
View from above satellite
View from above satellite

Ground track
Ground track

The orbit data is extracted from the following two-line orbital elements,

1 43729U 18096L   19047.94618020 +.00001939 +00000-0 +76802-4 0  9999
2 43729 097.4755 118.0318 0019717 049.7003 310.5955 15.26490191012160
Epoch (UTC): 16 February 2019 22:42:29
Eccentricity: 0.0019717
inclination: 97.4755°
perigee height: 473 km
apogee height: 500 km
right ascension of ascending node: 118.0318°
argument of perigee: 49.7003°
revolutions per day: 15.26490191
mean anomaly at epoch: 310.5955°
orbit number at epoch: 1216

The dashed part of the orbit path shows where the satellite is in the earth's shadow,  

DLR